Weather reports worldwide

Advertisment
Goteborg, Sweden (2513): temperature & dewpoint: 17.10.2019 21:00:00 - 23.10.2019 21:00:00 (CEST)Goteborg, Sweden (2513): wind speed & gusts: 17.10.2019 21:00:00 - 23.10.2019 21:00:00 (CEST)Goteborg, Sweden (2513): wind direction: 17.10.2019 21:00:00 - 23.10.2019 21:00:00 (CEST)Goteborg, Sweden (2513): reduced air pressure: 17.10.2019 21:00:00 - 23.10.2019 21:00:00 (CEST)Goteborg, Sweden (2513): visibility: 17.10.2019 21:00:00 - 23.10.2019 21:00:00 (CEST)Goteborg, Sweden (2513): precipitation: 17.10.2019 21:00:00 - 23.10.2019 21:00:00 (CEST)
Date & Time tt [°C] td [°C] ff [km/h] ff [kn] fx [km/h] fx [kn] dd ppp [hPa] vv [km] rr [mm]
23.10.2019 21:00:00 11,7 9,6 10 5 22 12 SSW 1015,3 38 0,0
23.10.2019 20:00:00 11,4 9,3 10 5 28 15 SSW 1015,6 33 0,0
23.10.2019 19:00:00 11,4 9,1 10 5 22 12 SSW 1015,5 31 0,0
23.10.2019 18:00:00 11,7 9,1 13 7 23 13 SSW 1015,5 37 0,0
23.10.2019 17:00:00 12,4 9,2 11 6 30 16 SSW 1015,5 37 0,0
23.10.2019 16:00:00 12,7 9,3 11 6 33 18 SSW 1016,1 39 0,0
23.10.2019 15:00:00 12,9 9,2 16 9 33 18 SSW 1016,4 21 0,0
23.10.2019 14:00:00 13,1 8,2 12 7 34 18 SW 1017,2 40 0,0
23.10.2019 13:00:00 12,9 8,2 15 8 29 16 SW 1017,4 24 0,0
23.10.2019 12:00:00 12,4 8,1 13 7 33 18 SSW 1017,2 23 0,0
23.10.2019 11:00:00 12,3 7,4 14 8 31 17 SW 1017,1 36 0,0
23.10.2019 10:00:00 12,1 7,2 11 6 - - SW 1017,1 28 0,0
23.10.2019 09:00:00 11,9 7,4 13 7 25 13 SW 1016,9 34 0,0
23.10.2019 08:00:00 11,7 8,0 11 6 27 15 SW 1016,4 23 0,0
23.10.2019 07:00:00 11,6 8,3 10 5 22 12 SW 1016,3 28 0,0
23.10.2019 06:00:00 11,3 8,7 10 6 29 16 SW 1016,8 16 0,0
23.10.2019 05:00:00 11,3 8,5 13 7 26 14 SW 1016,5 22 0,0
23.10.2019 04:00:00 11,5 8,5 12 6 29 16 SW 1016,8 25 0,0
23.10.2019 03:00:00 11,4 8,6 11 6 26 14 SW 1016,8 23 0,0
23.10.2019 02:00:00 11,4 8,4 11 6 27 15 SW 1016,7 28 0,0
23.10.2019 01:00:00 11,5 8,4 14 8 31 17 SW 1016,8 27 0,0
23.10.2019 00:00:00 11,5 8,2 14 7 35 19 SW 1016,8 30 0,0
22.10.2019 23:00:00 11,6 8,1 15 8 32 17 SW 1016,6 28 0,0
22.10.2019 22:00:00 11,6 7,9 14 8 31 17 SW 1016,4 30 0,0
22.10.2019 21:00:00 11,7 7,8 15 8 34 18 SW 1016,4 26 0,0
22.10.2019 20:00:00 11,9 7,8 14 7 37 20 SW 1016,3 33 0,0
22.10.2019 19:00:00 12,1 7,8 15 8 33 18 WSW 1016,1 39 0,0
22.10.2019 18:00:00 12,4 8,9 17 9 30 16 WSW 1015,8 50 0,0
22.10.2019 17:00:00 11,9 9,5 12 7 36 19 SSW 1015,6 35 0,0
22.10.2019 16:00:00 12,3 9,1 13 7 32 17 SSW 1015,8 39 0,0
22.10.2019 15:00:00 12,2 9,2 17 9 32 18 SW 1016,2 26 0,0
22.10.2019 14:00:00 12,0 9,4 15 8 26 14 WSW 1016,0 36 0,0
22.10.2019 13:00:00 11,8 9,2 13 7 34 19 WSW 1016,5 33 0,0
22.10.2019 12:00:00 11,6 9,5 15 8 31 17 SW 1016,4 38 0,0
22.10.2019 11:00:00 11,3 9,0 11 6 30 16 SW 1016,1 37 0,0
22.10.2019 10:00:00 10,8 10,0 9 5 22 12 SSW 1015,9 36 0,0
22.10.2019 09:00:00 9,0 7,1 7 4 16 9 S 1016,2 30 0,0
22.10.2019 08:00:00 8,0 6,3 5 3 12 6 S 1016,2 29 0,0
22.10.2019 07:00:00 6,9 5,4 7 4 15 8 S 1016,1 23 0,0
22.10.2019 06:00:00 6,3 4,6 7 4 14 8 S 1016,6 43 0,0
22.10.2019 05:00:00 6,5 4,7 5 3 10 5 S 1016,9 50 0,0
22.10.2019 04:00:00 7,1 4,9 5 3 9 5 S 1017,1 50 0,0
22.10.2019 03:00:00 7,6 5,2 0 0 5 3 N 1017,8 50 0,0
22.10.2019 02:00:00 7,6 5,4 0 0 8 5 N 1018,0 50 0,0
22.10.2019 01:00:00 7,6 5,2 0 0 3 2 N 1018,3 50 0,0
22.10.2019 00:00:00 7,5 5,1 0 0 12 6 N 1018,9 50 0,0
21.10.2019 23:00:00 7,7 5,5 4 2 11 6 WNW 1019,2 42 0,0
21.10.2019 22:00:00 7,8 5,6 0 0 7 4 N 1018,8 47 0,0
21.10.2019 21:00:00 7,8 5,6 4 2 11 6 NW 1019,4 42 0,0
21.10.2019 20:00:00 8,4 6,5 5 3 8 4 WSW 1019,5 28 -
21.10.2019 19:00:00 8,7 6,8 3 2 7 4 SSW 1019,3 22 -
21.10.2019 18:00:00 8,6 6,2 3 2 12 7 SSW 1019,8 34 -
21.10.2019 17:00:00 8,5 6,1 4 2 12 6 SE 1020,1 50 -
21.10.2019 16:00:00 8,2 5,5 3 1 10 6 ESE 1020,7 50 -
21.10.2019 15:00:00 8,3 6,1 4 2 9 5 SE 1020,9 50 -
21.10.2019 14:00:00 7,9 5,7 0 0 11 6 N 1021,1 50 -
21.10.2019 13:00:00 7,9 5,7 5 3 12 6 SE 1021,1 50 -
21.10.2019 12:00:00 7,4 5,0 4 2 10 6 E 1020,6 50 -
21.10.2019 11:00:00 6,8 5,3 3 2 10 5 E 1020,4 47 -
21.10.2019 10:00:00 6,7 5,8 3 1 10 5 NE 1020,4 43 0,0
21.10.2019 09:00:00 6,6 5,5 5 3 10 6 NNE 1019,9 29 0,0
21.10.2019 08:00:00 6,5 5,4 3 2 14 7 NNE 1019,9 50 0,0
21.10.2019 07:00:00 7,1 5,7 6 3 14 8 N 1018,7 50 0,0
21.10.2019 06:00:00 7,4 4,5 5 3 10 5 WNW 1018,4 50 0,0
21.10.2019 05:00:00 7,6 5,7 7 4 16 9 WNW 1017,8 50 0,0
21.10.2019 04:00:00 8,2 7,0 10 5 17 9 WNW 1017,8 50 0,0
21.10.2019 03:00:00 8,5 7,6 7 4 14 8 WNW 1017,3 50 0,0
21.10.2019 02:00:00 8,4 7,8 5 3 13 7 NW 1016,5 50 0,0
21.10.2019 01:00:00 9,2 8,7 2 1 17 9 N 1015,9 50 0,0
21.10.2019 00:00:00 9,9 9,9 7 4 17 9 WNW 1015,3 9 0,0
20.10.2019 23:00:00 10,2 8,8 4 2 10 6 S 1014,5 9 0,0
20.10.2019 22:00:00 11,0 10,1 6 3 13 7 S 1013,9 10 0,6
20.10.2019 21:00:00 11,1 10,0 3 1 8 4 S 1013,7 9 0,2
20.10.2019 20:00:00 11,0 9,4 0 0 11 6 N 1013,0 15 0,0
20.10.2019 19:00:00 11,7 9,9 7 4 11 6 S 1012,4 27 0,0
20.10.2019 18:00:00 12,2 9,8 5 3 15 8 SW 1011,7 35 0,0
20.10.2019 17:00:00 12,6 9,8 9 5 19 10 SW 1011,1 34 0,0
20.10.2019 16:00:00 12,8 10,0 10 5 21 11 SW 1010,5 31 0,0
20.10.2019 15:00:00 13,0 10,5 8 4 21 11 SSW 1010,1 28 0,0
20.10.2019 14:00:00 12,9 10,1 11 6 22 12 SW 1010,0 32 0,0
20.10.2019 13:00:00 12,6 10,1 10 5 20 11 SW 1009,6 25 0,0
20.10.2019 12:00:00 12,3 10,0 8 4 17 9 SSW 1009,4 37 0,0
20.10.2019 11:00:00 12,0 11,1 6 3 16 8 S 1008,7 24 0,0
20.10.2019 10:00:00 11,3 10,8 6 4 15 8 SSE 1008,0 32 0,0
20.10.2019 09:00:00 10,6 10,4 5 3 12 7 SSE 1007,5 24 0,0
20.10.2019 08:00:00 10,8 10,6 6 4 12 6 S 1007,1 29 0,0
20.10.2019 07:00:00 11,1 10,5 5 3 - - SSW 1006,4 31 0,0
20.10.2019 06:00:00 11,5 11,2 6 3 13 7 SSW 1005,6 50 0,0
20.10.2019 05:00:00 11,8 11,3 9 5 - - SSW 1005,0 49 0,0
20.10.2019 04:00:00 11,5 11,3 8 4 19 10 SSE 1004,9 49 0,0
20.10.2019 03:00:00 11,1 11,1 7 4 16 8 SE 1004,6 8 6,8
20.10.2019 02:00:00 11,2 11,0 7 4 14 8 SE 1004,9 9 4,1
20.10.2019 01:00:00 11,4 10,9 6 3 14 7 ESE 1005,1 12 2,4
20.10.2019 00:00:00 11,5 11,0 4 2 12 7 ESE 1005,4 7 1,2
19.10.2019 23:00:00 11,9 10,6 5 3 17 9 SSE 1005,7 15 0,0
19.10.2019 22:00:00 12,2 10,6 9 5 18 10 S 1005,7 34 0,0
19.10.2019 21:00:00 12,3 10,4 9 5 20 11 S 1005,4 27 0,0
19.10.2019 20:00:00 12,4 10,3 9 5 19 10 S 1005,3 28 0,0
19.10.2019 19:00:00 12,3 10,0 9 5 27 14 S 1005,2 29 0,0
19.10.2019 18:00:00 12,3 9,5 15 8 31 17 S 1004,7 28 0,0
19.10.2019 17:00:00 12,5 9,3 17 9 31 17 S 1004,5 25 0,0
19.10.2019 16:00:00 12,7 9,3 19 10 37 20 S 1004,2 26 0,0
19.10.2019 15:00:00 12,9 9,7 17 9 36 19 S 1004,2 27 0,0
19.10.2019 14:00:00 12,6 9,8 17 9 49 26 S 1003,9 21 0,0
19.10.2019 13:00:00 12,7 9,5 18 10 40 22 S 1003,4 22 0,0
19.10.2019 12:00:00 12,4 9,6 20 11 41 22 S 1003,1 20 0,0
19.10.2019 11:00:00 12,7 9,9 23 13 55 30 SSW 1002,4 21 0,0
19.10.2019 10:00:00 12,8 10,2 20 11 45 24 SSW 1002,0 21 0,0
19.10.2019 09:00:00 12,2 10,1 22 12 45 24 SSW 1001,6 20 0,0
19.10.2019 08:00:00 12,0 9,6 18 10 - - SSW 1001,0 24 0,0
19.10.2019 07:00:00 11,9 9,6 20 11 46 25 SSW 1000,3 23 0,0
19.10.2019 06:00:00 12,2 9,9 21 11 44 24 SSW 999,9 21 0,0
19.10.2019 05:00:00 12,1 9,7 18 10 43 23 SSW 999,8 21 0,0
19.10.2019 04:00:00 11,9 9,6 17 9 46 25 SSW 999,7 20 0,0
19.10.2019 03:00:00 11,8 9,7 18 10 41 22 SSW 999,4 22 0,8
19.10.2019 02:00:00 11,3 9,7 16 9 42 23 SSW 999,2 7 0,4
19.10.2019 01:00:00 11,9 10,1 16 9 36 19 S 998,9 39 0,8
19.10.2019 00:00:00 12,0 10,7 12 7 38 21 SSW 998,6 19 0,4
18.10.2019 23:00:00 12,7 12,1 11 6 33 18 SSE 998,2 49 3,5
18.10.2019 22:00:00 12,8 12,0 11 6 27 14 ESE 998,9 13 1,2
18.10.2019 21:00:00 13,0 12,1 11 6 22 12 ESE 1000,0 47 0,0
18.10.2019 20:00:00 12,6 11,8 10 6 23 13 ESE 1001,2 39 0,0
18.10.2019 19:00:00 12,1 11,3 3 2 13 7 E 1002,1 24 0,3
18.10.2019 18:00:00 12,1 11,0 5 3 15 8 SE 1002,8 38 0,0
18.10.2019 17:00:00 12,5 11,1 7 4 27 14 SSE 1003,2 44 0,0
18.10.2019 16:00:00 12,6 12,0 9 5 19 11 S 1003,7 46 0,0
18.10.2019 15:00:00 11,3 11,0 7 4 14 8 ESE 1004,4 26 0,0
18.10.2019 14:00:00 10,4 10,2 6 4 17 9 ENE 1004,8 6 0,5
18.10.2019 13:00:00 10,4 10,1 6 4 17 9 ENE 1005,8 4,3 0,8
18.10.2019 12:00:00 10,3 9,5 6 3 19 11 ENE 1006,9 36 0,4
18.10.2019 11:00:00 10,0 9,2 7 4 16 8 E 1007,7 24 0,4
18.10.2019 10:00:00 9,6 9,4 4 2 11 6 ENE 1007,9 40 0,0
18.10.2019 09:00:00 9,2 9,2 5 3 10 6 E 1008,3 33 0,0
18.10.2019 08:00:00 9,3 9,3 8 5 16 8 SE 1008,4 33 0,0
18.10.2019 07:00:00 9,2 9,2 5 3 13 7 SSE 1008,8 11 0,0
18.10.2019 06:00:00 9,2 8,9 6 4 13 7 SSE 1009,0 25 0,0
18.10.2019 05:00:00 9,6 8,8 4 2 9 5 S 1009,1 31 0,0
18.10.2019 04:00:00 10,5 10,0 5 3 10 5 SSE 1009,0 31 0,0
18.10.2019 03:00:00 11,2 10,6 5 3 12 7 S 1009,2 41 0,0
18.10.2019 02:00:00 11,7 10,6 7 4 14 8 S 1009,0 42 0,0
18.10.2019 01:00:00 11,6 9,5 3 1 11 6 SSW 1009,1 50 0,0
18.10.2019 00:00:00 12,1 10,0 7 4 13 7 SSW 1008,9 38 0,0
17.10.2019 23:00:00 12,4 11,0 5 3 10 5 S 1008,8 36 0,0
17.10.2019 22:00:00 12,5 11,4 4 2 13 7 SSW 1008,5 35 0,0
17.10.2019 21:00:00 12,6 12,3 6 3 13 7 S 1008,2 39 0,0

tt = temperature
td = dewpoint
ff = wind speed
fx = gusts
dd = wind direction
ppp = reduced air pressure
vv = visibility
rr = precipitation

Next stations